TimeCST,TemperatureF,Dew PointF,Humidity,Sea Level PressureIn,VisibilityMPH,Wind Direction,Wind SpeedMPH,Gust SpeedMPH,PrecipitationIn,Events,Conditions,WindDirDegrees,DateUTC
12:03 AM,53.6,51.8,94,29.91,7.0,South,6.9,-,N/A,,Overcast,190,2012-12-07 06:03:00
12:33 AM,53.6,51.8,94,29.90,9.0,SSW,4.6,-,N/A,,Overcast,200,2012-12-07 06:33:00
12:53 AM,54.0,51.1,90,29.89,9.0,SSW,5.8,-,N/A,,Overcast,200,2012-12-07 06:53:00
1:00 AM,53.6,51.8,94,29.90,9.0,SSW,5.8,-,N/A,,Overcast,210,2012-12-07 07:00:00
1:53 AM,54.0,51.1,90,29.89,9.0,SSW,3.5,-,N/A,,Overcast,200,2012-12-07 07:53:00
2:30 AM,53.6,51.8,94,29.90,8.0,Calm,Calm,-,N/A,,Overcast,0,2012-12-07 08:30:00
2:53 AM,53.1,51.1,93,29.89,7.0,Calm,Calm,-,N/A,,Overcast,0,2012-12-07 08:53:00
3:18 AM,53.6,51.8,94,29.90,6.0,South,3.5,-,N/A,,Overcast,180,2012-12-07 09:18:00
3:53 AM,53.1,51.1,93,29.89,6.0,WSW,3.5,-,N/A,,Overcast,240,2012-12-07 09:53:00
4:07 AM,53.6,51.8,94,29.90,5.0,WSW,3.5,-,N/A,,Overcast,250,2012-12-07 10:07:00
4:42 AM,53.6,51.8,94,29.89,4.0,WSW,3.5,-,N/A,,Overcast,250,2012-12-07 10:42:00
4:53 AM,52.0,51.1,97,29.89,4.0,Calm,Calm,-,N/A,,Overcast,0,2012-12-07 10:53:00
5:01 AM,51.8,50.0,94,29.89,1.5,Calm,Calm,-,N/A,,Overcast,0,2012-12-07 11:01:00
5:04 AM,51.8,50.0,94,29.89,1.0,Calm,Calm,-,N/A,,Overcast,0,2012-12-07 11:04:00
5:12 AM,51.8,48.2,88,29.89,0.8,Calm,Calm,-,N/A,,Overcast,0,2012-12-07 11:12:00
5:43 AM,51.8,50.0,94,29.89,1.2,Calm,Calm,-,N/A,,Overcast,0,2012-12-07 11:43:00
5:53 AM,50.0,48.9,96,29.88,0.8,Calm,Calm,-,N/A,,Overcast,0,2012-12-07 11:53:00
6:53 AM,46.0,45.0,96,29.90,0.2,WSW,3.5,-,N/A,Fog,Fog,250,2012-12-07 12:53:00
7:53 AM,48.9,48.0,97,29.89,0.2,Calm,Calm,-,N/A,Fog,Fog,0,2012-12-07 13:53:00
8:29 AM,50.0,50.0,100,29.89,1.2,Calm,Calm,-,N/A,,Overcast,0,2012-12-07 14:29:00
8:34 AM,51.8,50.0,94,29.89,2.5,Calm,Calm,-,N/A,,Overcast,0,2012-12-07 14:34:00
8:42 AM,51.8,50.0,94,29.90,4.0,SW,3.5,-,N/A,,Overcast,230,2012-12-07 14:42:00
8:53 AM,52.0,50.0,93,29.89,5.0,SW,4.6,-,N/A,,Overcast,230,2012-12-07 14:53:00
9:53 AM,54.0,50.0,86,29.90,10.0,SW,4.6,-,N/A,,Overcast,230,2012-12-07 15:53:00
10:53 AM,55.9,48.9,77,29.89,10.0,WSW,6.9,-,N/A,,Mostly Cloudy,240,2012-12-07 16:53:00
11:53 AM,57.9,48.9,72,29.86,10.0,West,5.8,-,N/A,,Overcast,260,2012-12-07 17:53:00
12:53 PM,60.1,48.9,67,29.83,10.0,Calm,Calm,-,N/A,,Scattered Clouds,0,2012-12-07 18:53:00
1:22 PM,60.8,48.2,63,29.83,10.0,Calm,Calm,-,N/A,,Mostly Cloudy,0,2012-12-07 19:22:00
1:53 PM,61.0,48.9,64,29.81,10.0,Variable,5.8,-,N/A,,Mostly Cloudy,0,2012-12-07 19:53:00
2:20 PM,60.8,48.2,63,29.82,10.0,South,3.5,-,N/A,,Mostly Cloudy,190,2012-12-07 20:20:00
2:53 PM,60.1,48.0,64,29.81,10.0,SSW,4.6,-,N/A,,Overcast,200,2012-12-07 20:53:00
3:53 PM,60.1,48.9,67,29.82,10.0,Calm,Calm,-,N/A,,Overcast,0,2012-12-07 21:53:00
4:53 PM,57.9,48.9,72,29.83,10.0,Calm,Calm,-,N/A,,Overcast,0,2012-12-07 22:53:00
5:53 PM,57.0,48.9,74,29.83,10.0,Calm,Calm,-,N/A,,Overcast,0,2012-12-07 23:53:00
6:05 PM,57.2,48.2,72,29.84,10.0,Calm,Calm,-,N/A,,Overcast,0,2012-12-08 00:05:00
7:53 PM,57.9,50.0,75,29.85,9.0,SSW,4.6,-,N/A,,Overcast,200,2012-12-08 01:53:00
8:53 PM,55.9,50.0,80,29.85,8.0,South,4.6,-,N/A,,Overcast,190,2012-12-08 02:53:00
9:09 PM,55.4,50.0,82,29.86,8.0,SSW,3.5,-,N/A,,Overcast,200,2012-12-08 03:09:00
9:53 PM,55.9,50.0,80,29.86,7.0,SW,4.6,-,N/A,,Overcast,220,2012-12-08 03:53:00
10:43 PM,55.4,51.8,88,29.87,6.0,SW,6.9,-,N/A,,Overcast,220,2012-12-08 04:43:00
10:53 PM,55.0,52.0,89,29.86,6.0,SW,5.8,-,N/A,,Overcast,230,2012-12-08 04:53:00
11:22 PM,55.4,51.8,88,29.87,5.0,SW,5.8,-,N/A,,Overcast,230,2012-12-08 05:22:00
11:31 PM,55.4,51.8,88,29.87,5.0,SW,5.8,-,N/A,,Overcast,230,2012-12-08 05:31:00
11:53 PM,55.0,52.0,89,29.86,5.0,WSW,5.8,-,N/A,,Overcast,240,2012-12-08 05:53:00